Location: Eberbach
(49.4690°N, 8.9930°E)
Time: 21:44:49
(UTC+02:00)

ISS - Pass Details

Date: 05 October 2021
Orbit: 417 x 423 km, 51.6° (Epoch: 27 October)

Event Time Altitude Azimuth Distance (km) Brightness Sun altitude
Rises 20:21:22 0° 283° (WNW) 2,365 2.0 -15.0°
Reaches altitude 10° 20:24:04 10° 260° (W) 1,498 0.2 -15.4°
Maximum altitude 20:26:08 15° 222° (SW) 1,209 -1.1 -15.8°
Drops below altitude 10° 20:28:11 10° 184° (S) 1,493 -1.0 -16.1°
Enters shadow 20:29:03 - 174° (S) 1,734 -0.8 -16.2°
